GFSFLT2_sfc_dewp_174.txt.gz
Dewpoint
43 43 43 43 43 45 45 40 40 40 37 38 39 41 41 42 42 43 44 46 47 47 47 47 48 48 48
41 41 42 42 42 42 42 40 36 37 35 37 38 40 40 39 39 40 43 43 43 44 44 45 45 45 45
40 40 40 41 41 40 38 38 37 38 34 35 39 40 39 38 37 38 40 40 40 40 40 40 41 41 42
38 38 37 37 36 36 34 36 37 34 32 32 38 40 40 38 36 34 38 38 38 39 39 39 39 40 39
34 34 34 33 32 33 34 33 32 34 31 31 30 35 36 37 34 33 34 37 37 38 36 35 35 35 35
34 33 32 32 31 31 30 29 26 31 29 29 30 30 32 31 32 34 35 38 37 35 34 34 34 34 34
35 34 32 31 29 28 28 29 28 30 27 24 29 28 29 30 33 34 37 38 37 33 32 32 33 33 33
41 39 35 33 28 29 29 29 29 28 26 24 27 26 27 27 32 32 38 38 37 35 32 31 32 33 33
43 43 42 42 34 30 28 27 26 28 28 26 27 26 26 26 28 34 38 38 36 36 34 33 33 32 32
35 37 40 39 40 31 30 27 27 25 29 26 26 25 23 26 27 31 33 37 36 35 35 35 35 30 29
35 34 33 33 34 34 32 30 26 27 30 27 26 22 20 23 25 26 30 31 32 33 34 35 33 31 29
35 35 34 33 32 32 32 31 31 31 30 29 20 22 20 18 22 27 25 26 28 26 27 29 30 31 32
35 35 34 36 33 32 30 29 28 29 29 28 24 25 20 17 20 22 22 27 26 25 25 27 27 27 25
34 34 34 33 33 33 32 30 27 21 27 31 29 24 19 21 21 20 24 21 25 25 25 26 28 28 27
33 34 34 34 33 33 33 31 27 19 27 28 28 27 24 20 19 26 26 24 25 25 24 23 27 27 27
34 33 33 33 33 32 32 32 29 27 26 29 27 26 25 24 29 25 22 23 24 24 25 23 24 26 27
33 33 33 33 33 32 32 31 29 28 29 29 26 24 20 19 26 30 25 25 25 25 25 24 22 25 26

GFSFLT2_sfc_dewp_177.txt.gz
Dewpoint
43 42 42 42 43 43 44 42 40 43 41 39 38 39 41 41 41 43 46 46 47 47 48 48 49 49 50
42 41 41 41 41 41 42 42 39 40 41 38 38 39 40 40 39 41 42 43 43 44 44 45 45 46 47
43 40 40 39 39 39 38 37 37 40 41 38 37 40 40 39 37 36 40 39 39 40 41 41 41 43 43
40 38 38 37 35 35 33 34 35 36 36 33 35 40 41 40 38 34 36 38 38 39 39 38 38 39 39
36 34 34 33 32 32 32 32 31 33 32 31 31 31 36 40 38 35 33 38 38 38 36 35 35 35 36
34 34 33 32 32 31 30 28 25 30 30 28 30 29 31 33 36 35 33 35 39 36 34 34 34 34 34
37 35 34 33 32 28 28 28 28 29 27 25 27 27 29 29 36 36 35 36 39 36 33 32 33 33 34
40 40 36 34 31 30 28 28 29 29 27 25 26 26 27 28 34 36 35 38 39 37 34 32 32 32 33
43 43 43 42 38 30 28 27 26 27 28 26 26 26 26 26 27 33 35 38 38 36 36 35 33 34 32
35 35 41 41 43 31 30 27 26 26 29 26 25 26 22 26 27 29 31 36 39 36 36 36 35 32 29
34 34 34 33 33 34 31 30 25 29 29 25 27 21 19 21 25 25 29 30 31 33 36 36 35 34 29
34 34 34 34 34 34 34 32 31 30 30 27 18 20 15 17 21 24 23 26 28 25 26 31 32 32 32
34 34 34 35 34 33 32 32 32 31 32 30 23 26 17 15 18 21 21 24 24 23 22 25 27 27 26
32 33 34 33 33 33 33 32 31 30 30 31 27 22 16 20 20 18 21 20 20 22 24 25 28 28 28
33 33 33 33 34 33 33 31 30 28 28 28 30 28 23 21 18 23 23 23 21 21 23 22 27 28 27
33 33 33 33 33 32 32 32 30 30 28 26 27 27 24 24 29 25 21 22 20 22 23 19 25 27 26
33 33 33 33 33 33 32 32 31 30 29 26 27 24 21 20 23 30 19 20 21 21 24 23 22 26 25

GFSFLT2_sfc_dewp_183.txt.gz
Dewpoint
43 42 41 42 43 43 42 41 42 45 47 46 44 41 40 41 40 41 43 44 45 46 47 48 49 50 52
42 42 41 41 41 40 40 41 40 42 44 44 44 42 40 41 39 37 41 41 42 43 44 46 47 47 48
42 41 40 39 39 38 38 37 35 37 38 41 42 43 40 41 41 37 38 39 39 40 42 43 44 44 45
41 40 39 38 36 36 35 33 32 33 35 36 40 40 39 40 41 41 34 39 39 39 37 37 38 39 40
40 38 35 35 35 35 32 32 32 32 30 30 31 32 32 35 40 42 39 34 39 39 36 35 35 36 36
40 39 38 36 34 33 32 30 31 29 29 27 28 27 28 29 34 38 41 38 35 39 37 34 34 34 34
39 37 35 35 34 31 31 31 30 29 28 26 27 26 27 27 34 37 38 38 35 39 37 34 33 33 33
38 39 37 36 35 34 32 30 29 29 28 27 26 25 25 26 32 36 38 39 37 38 37 35 33 32 33
40 41 42 43 40 31 29 27 27 27 28 27 26 25 26 26 27 32 37 38 37 37 38 36 35 34 33
34 34 36 35 40 36 32 27 29 31 28 27 25 25 22 25 27 27 28 35 36 39 38 36 36 35 33
37 35 33 33 33 36 36 34 31 32 31 27 20 22 19 22 25 25 27 29 31 33 37 37 36 35 33
35 35 35 35 34 35 35 34 34 34 33 31 31 25 18 17 21 25 23 24 27 27 27 32 35 37 36
33 33 33 34 33 33 32 33 33 33 34 33 31 28 25 23 19 21 22 24 24 24 22 25 26 27 25
33 33 33 33 33 33 33 33 32 32 32 33 32 31 28 27 25 19 22 21 20 21 24 25 27 27 27
33 33 32 32 32 33 33 33 32 32 31 31 31 31 30 27 26 25 25 22 21 20 22 21 25 27 27
33 32 32 32 32 32 32 32 32 32 32 31 28 27 25 25 29 25 23 22 20 20 21 16 20 24 26
32 32 32 32 33 32 32 32 32 32 32 31 28 25 18 16 24 30 23 22 18 19 21 23 17 23 26

GFSFLT2_sfc_dewp_186.txt.gz
Dewpoint
43 42 40 41 42 43 43 41 41 45 46 46 47 45 42 40 40 38 42 42 44 45 47 48 49 51 52
43 41 40 40 40 40 42 41 40 42 43 44 44 44 43 41 41 37 40 40 41 43 45 46 47 47 48
42 41 40 39 39 38 38 38 37 39 40 40 41 43 44 41 42 40 36 39 39 40 40 42 43 44 45
40 41 39 38 37 36 36 35 35 32 35 37 38 41 44 41 42 43 38 38 40 40 37 37 39 40 41
39 39 37 38 38 38 34 33 33 33 31 30 30 32 34 39 40 43 41 36 40 40 37 35 36 37 37
39 39 38 35 37 37 35 33 35 30 29 27 29 27 28 29 33 38 43 41 37 40 39 36 35 35 36
40 40 38 37 37 35 31 32 32 32 28 27 27 26 27 26 33 36 38 41 39 38 40 37 35 35 35
36 38 39 39 37 37 35 33 31 29 28 27 27 26 25 26 30 34 38 39 39 37 40 37 35 34 33
39 40 40 41 41 35 33 31 31 30 28 27 27 25 26 25 26 31 36 38 39 38 39 37 35 34 33
35 36 36 35 38 38 36 33 32 32 30 28 26 26 23 25 27 27 28 36 39 38 38 37 36 34 33
37 37 36 35 35 35 37 36 33 34 33 31 28 26 24 21 24 25 26 28 31 33 38 38 36 35 34
34 34 34 35 34 35 35 35 36 35 34 32 32 30 28 25 24 24 23 24 27 26 27 32 36 38 36
33 33 33 34 33 33 33 34 33 33 35 34 32 31 29 29 28 26 27 26 25 23 22 25 27 29 27
34 33 33 33 33 33 33 33 32 33 33 33 33 32 30 30 29 26 26 26 25 26 26 25 26 26 26
32 33 33 33 32 33 33 33 32 32 32 32 32 32 32 30 28 27 25 24 25 24 23 23 26 26 27
32 32 32 32 32 32 32 32 32 32 32 32 29 27 27 28 31 28 23 22 24 25 23 19 22 25 26
30 31 32 32 32 32 32 32 32 32 32 32 29 27 21 19 24 31 23 22 21 20 22 22 21 23 25